Flag for Canada Weather past 2 weeks in Strathcona County, Alberta, Canada

Now
7 °F

Overcast.


Feels Like: -11 °F
Forecast: -11 / -4 °F
Wind: 15 mph from North

Location: Edmonton Municipal

Current Time: Dec 28, 2014 at 9:37:16 PM

Latest Report: Dec 28, 2014 at 9:00 PM


Visibility: 8 mi

Pressure: 30.85 "Hg

Humidity: 78%

Dew point: 1 °F

Location of Strathcona CountyLocation

Historic Weather in Strathcona County — Graph

°F

Strathcona County temperature yesterday

Maximum temperature yesterday: 21 °F (at 12:00 AM)
Minimum temperature yesterday: 10 °F (at 11:00 PM)
Average temperature yesterday: 16 °F

Past Weeks' High & Low Weather Summary

 TemperatureHumidityPressure
High36 °F (Dec 22, 1:00 PM)100% (Dec 15, 9:00 AM)30.81 "Hg (Dec 15, 9:00 AM)
Low1 °F (Dec 26, 7:00 AM)59% (Dec 20, 4:00 PM)29.33 "Hg (Dec 21, 2:00 AM)
Average20 °F81%30.00 "Hg
* Reported Dec 13 8:00 PM — Dec 28 8:00 PM, Strathcona County, Weather by CustomWeather, © 2014

Note: Actual official high and low records may vary slightly from our data, if they occured in-between our weather recording intervals... More about our weather records

Advertising

Strathcona County weather history for previous 24 hours

 ConditionsComfort  
Time TempWeatherWind HumidityBarometerVisibility
8:00 PM
Dec 28
9 °FOvercast.13 mph78%30.81 "Hg9 mi
7:00 PM9 °FOvercast.14 mph78%30.78 "Hg9 mi
6:00 PM9 °FOvercast.9 mph78%30.74 "Hg9 mi
5:00 PM9 °FOvercast.6 mph78%30.71 "Hg9 mi
4:00 PM9 °FOvercast.5 mph78%30.68 "Hg9 mi
3:00 PM9 °FOvercast.9 mph78%30.65 "Hg8 mi
2:00 PM9 °FOvercast.6 mph78%30.61 "Hg7 mi
1:51 PM9 °FPartly sunny.6 mph78%30.44 "Hg7 mi
1:00 PM9 °FOvercast.7 mph78%30.59 "Hg6 mi
12:00 PM9 °FOvercast.3 mph78%30.56 "Hg7 mi
11:00 AM9 °FMostly cloudy.5 mph78%30.55 "Hg7 mi
10:00 AM7 °FOvercast.5 mph85%30.52 "Hg9 mi
9:00 AM7 °FOvercast.6 mph85%30.49 "Hg9 mi
8:00 AM7 °FOvercast.5 mph78%30.46 "Hg9 mi
7:00 AM7 °FOvercast.6 mph78%30.43 "Hg9 mi
6:00 AM7 °FOvercast.6 mph78%30.40 "Hg7 mi
5:45 AM7 °FOvercast.6 mph85%30.24 "Hg8 mi
5:00 AM7 °FLight snow. Mostly cloudy.6 mph85%30.38 "Hg4 mi
4:00 AM7 °FOvercast.6 mph85%30.35 "Hg5 mi
3:00 AM7 °FLight snow. Overcast.7 mph85%30.32 "Hg3 mi
2:55 AM7 °FLight snow. Overcast.7 mph85%30.17 "Hg5 mi
2:00 AM9 °FLight snow. Overcast.7 mph78%30.28 "Hg4 mi
1:00 AM9 °FLight snow. Overcast.7 mph85%30.25 "Hg6 mi
12:50 AM9 °FLight snow. Overcast.7 mph85%30.10 "Hg5 mi
12:03 AM10 °FLight snow. Mostly cloudy.7 mph85%30.08 "Hg5 mi
12:00 AM10 °FMostly cloudy.8 mph85%30.22 "Hg6 mi
11:48 PM
Dec 27
10 °FMostly cloudy.7 mph85%30.08 "Hg7 mi
11:00 PM10 °FLow clouds.7 mph85%30.21 "Hg7 mi
10:00 PM12 °FLow clouds.9 mph85%30.18 "Hg7 mi
9:00 PM14 °FLow clouds.6 mph85%30.15 "Hg5 mi
Weather by CustomWeather, © 2014

See weather overviewHow to use our weather pages